Regional Weather Roundup
Issued by NWS Sterling, VA

Home | Current Version | Previous Version | Graphics & Text | Print | Product List | Glossary On
Versions: 1 2 3 4 5 6 7 8 9 10 11 12 13 14 15 16 17 18 19 20 21 22 23 24 25 26 27 28 29 30 31 32 33 34 35 36 37 38 39 40 41 42 43 44 45 46 47 48 49 50
842
ASUS41 KLWX 141210
RWRLWX

REGIONAL WEATHER ROUNDUP
NATIONAL WEATHER SERVICE BALTIMORE MD/WASHINGTON DC
700 AM EST SUN FEB 14 2016

Note: "FAIR" indicates few or no clouds below 12,000 feet
with no significant weather and/or obstructions to visibility.
 TC=TEMPERATURE CELSIUS

 * =Non NWS site. Station does not report precipitation (e.g. rain,
    snow, etc.), thunder, or fog.

DCZ001-MDZ009-015-VAZ040>042-051-053>054-141300-
WASHINGTON METRO

CITY           SKY/WX    TMP DP  RH WIND       PRES   REMARKS
WASHINGTON NAT FAIR      13  -2  51 NW9       30.57R WCI   1
DULLES         FAIR       7  -2  66 CALM      30.54R
ANDREWS AFB    CLEAR     11  -2  55 W8        30.53R WCI   0
FT BELVOIR     FAIR       8   0  72 CALM      30.57R
QUANTICO       FAIR      14  -1  51 N10       30.59R WCI   1
COLLEGE PARK*  FAIR      14   0  52 W3        30.55R
LEESBURG*      FAIR       9   5  85 MISG      30.54R
MANASSAS*      CLEAR     10   3  72 NW5       30.55R
GAITHERSBURG*  PTCLDY     7  -4  61 W6        30.54R

$$

MDZ006>007-011-014-141300-
BALTIMORE METRO

CITY           SKY/WX    TMP DP  RH WIND       PRES   REMARKS
BWI AIRPORT    PTCLDY     9  -1  64 W6        30.53R
MD SCIENCE CTR   N/A     12  -4  48 MISG      30.59R
MARTIN STATE   PTCLDY    12   0  57 W6        30.56R
ANNAPOLIS      CLEAR     11  -1  58 W6        30.55R
FORT MEADE*    CLEAR      9   1  72 W5        30.56R

$$

MDZ012-015-019>023-141300-
MARYLAND EASTERN SHORE

CITY           SKY/WX    TMP DP  RH WIND       PRES   REMARKS
OCEAN CITY     CLEAR     12  -4  48 NW12      30.53R WCI  -2
SALISBURY      PTCLDY    11  -1  58 NW7       30.53R
BAY BRIDGE AP*   N/A     14   0  52 W3        30.55R

$$

MDZ017>025-141300-
SOUTHERN MARYLAND

CITY           SKY/WX    TMP DP  RH WIND       PRES   REMARKS
PATUXENT RIVER PTCLDY    13  -2  51 W13       30.56R WCI  -2
ST INIGOES     CLEAR     13   0  56 NW10      30.56R WCI   0
LEONARDTOWN*   CLEAR     10  -2  56 W3        30.56

$$

MDZ003>005-141300-
NORTH CENTRAL MARYLAND

CITY           SKY/WX    TMP DP  RH WIND       PRES   REMARKS
FREDERICK*     CLEAR      9   1  72 CALM      30.56R
HAGERSTOWN APT CLEAR      8  -5  55 CALM      30.48R
WESTMINSTER*   PTCLDY     7  -2  66 CALM      30.45R

$$

MDZ501>502-141300-
WESTERN MARYLAND

CITY           SKY/WX    TMP DP  RH WIND       PRES   REMARKS
OAKLAND*       CLOUDY     0  -4  85 NW3       30.24R FOG
CUMBERLAND*    CLEAR     12   0  57 CALM      30.53R

$$

VAZ025>031-141300-
SHENANDOAH VALLEY

CITY           SKY/WX    TMP DP  RH WIND       PRES   REMARKS
WINCHESTER*    FAIR       9   1  72 CALM      30.49R
FRONT ROYAL*   FAIR      10   0  61 CALM      30.49R
LURAY*         FAIR       9   0  66 CALM      30.48R
NEW MARKET*    FAIR       5  -2  72 CALM      30.47R
STAUNTON*      FAIR       8   1  73 CALM      30.48R
WAYNESBORO*    FAIR       5  -6  61 CALM      30.43R

$$

WVZ021-048>050-054>055-141300-
EASTERN WEST VIRGINIA PANHANDLE

CITY           SKY/WX    TMP DP  RH WIND       PRES   REMARKS
MARTINSBURG    FAIR      10  -4  53 W12       30.50R WCI  -5
PETERSBURG*    FAIR      10   0  65 CALM      30.49R

$$

VAZ036>039-050-141300-
CENTRAL FOOTHILLS

CITY           SKY/WX    TMP DP  RH WIND       PRES   REMARKS
CHARLOTTESVILL FAIR       9  -5  53 S5        30.51R
CULPEPER*      FAIR       6   2  84 CALM      30.56R
ORANGE*        FAIR       9   1  72 CALM      30.55R
GORDONSVILLE*  FAIR       6   0  76 CALM      30.53R
WARRENTON*     FAIR       7   4  86 CALM      30.54R

$$

VAZ055>057-141300-
NORTH AND CENTRAL PIEDMONT

CITY           SKY/WX    TMP DP  RH WIND       PRES   REMARKS
FREDERICKSBRG* FAIR       8   2  78 CALM      30.57R
STAFFORD*      FAIR       4   0  82 CALM      30.61R

$$

NCZ024-NYZ072-PAZ021-071-VAZ022-071-141300-
OTHER REGIONAL OBSERVATIONS

CITY           SKY/WX    TMP DP  RH WIND       PRES   REMARKS
NEW YORK CITY  CLEAR      0 -18  42 MISG      30.49R
PHILADELPHIA   PTCLDY     9 -12  38 NW13      30.53R WCI  -7
PITTSBURGH     CLOUDY    -1  -6  79 CALM      30.43S
ROANOKE        MOCLDY    11  -3  53 N6        30.48R
RICHMOND       FAIR      10   1  67 N3        30.55R
RALEIGH        PTCLDY    15   0  51 NE6       30.53R

$$

ANZ530>537-141300-
MARINE OBSERVATIONS

STATION/POSITION TIME  TEMP    WIND        PRES
                       AIR SEA DIR/SP/G
                 (UTC) (F)     (DEG/KT/KT) (MB)
THOMAS PT LIGHT  1200   14 34  310/ 13/ 15 1035.2R
BALT KEY BRIDGE  1100   13     260/ 12/ 14 1033.5R
COVE POINT       1100   13     330/ 13/ 23 1034.3R
LEWISETTA        1100   16 33  330/ 13/ 19 1034.0R
SOLOMONS ISLAND  1100   15 37  320/  9/ 13   N/A
PINEY POINT      1100          340/ 20/ 25   N/A

$$





USA.gov is the U.S. government's official web portal to all federal, state and local government web resources and services.